Find Starlink 2624

NORAD ID: 48358 Int'l Des: 2021-038 Owner: SPXS Country: US Constellation: starlink operational
LEOCIRCULAR

現在のビュー

3D地球を読み込み中...

About Starlink 2624

Starlink 2624 (NORAD 48358) is a starlink constellation satellite (v1.0) launched May 4, 2021 by SPXS of US. It operates in LEO, CIRCULAR orbit with a mass of 260.00 kg.

Starlink 2624について

説明を読み込み中...

次回通過

Passes for default location (London). Set your location on the main map for personalized predictions.

高度履歴

Loading altitude history...

軌道要素

1 48358U 21038F 26169.92908717 .00000100 00000-0 15002-4 0 9992
2 48358 53.1581 247.1471 0001246 88.0319 272.0825 15.31699062282584
Epoch: Jun 18, 2026 • Age: 14 hours

現在のステータス

高度 471.8 km
速度 7.63 km/s
衛星直下点 29.09°N, 172.81°E
打ち上げ日 May 4, 2021
運用期間 5.1 years
タイプ internet

技術仕様

分類 Payload
質量 260.00 kg
乾燥質量 248.00 kg
総質量 260.00 kg
長さ 0.20 m
直径 2.80 m
スパン 9.00 m
形状 Box + pan
製造者 SPXS
バスタイプ Starlink
フェーズステータス In Orbit
所有者/国 SPXS/US

Most Searched